Tracking 28790 objects as of 19-Apr-2024
HD Live streaming from Space Station
objects crossing your sky now

THOR ABLESTAR DEB

Track THOR ABLESTAR DEB now!
10-day predictions


NORAD ID: 2701
Int'l Code: 1965-048E
Perigee: 982.7 km
Apogee: 1,079.6 km
Inclination: 89.9 °
Period: 105.6 minutes
Semi major axis: 7402 km
RCS: 0.0149 m2 (small)
Launch date: June 24, 1965
Source: United States (US)
Launch site: AIR FORCE WESTERN TEST RANGE (AFWTR)

Note: This is SATELLITE DEBRIS
Your satellite tracking list
Your tracking list is empty




NASA's NSSDC Master Catalog

Two Line Element Set (TLE):
1 02701U 65048E   24108.99760903  .00000672  00000-0  83011-3 0  9992
2 02701  89.8897 296.9645 0065429  64.8364  93.6196 13.63226380913640
Source of the keplerian elements: AFSPC